Location: Ikejouine
(32.5142°N, 5.4699°W)
Time: 16:55:13
(UTC+00:00)

Hubble Space Telescope - Pass Details

Date: 09 April 2020
Orbit: 536 x 540 km, 28.5° (Epoch: 27 May)

Event Time Altitude Azimuth Distance (km) Brightness Sun altitude
Rises 20:30:20 0° 259° (W) 2,667 5.2 -21.4°
Reaches altitude 10° 20:32:38 10° 254° (WSW) 1,777 4.0 -21.8°
Enters shadow 20:36:05 45° 205° (SSW) 733 1.3 -22.5°
